LOT2HE EPRZ-LROP

Flight info

Callsign LOT2HE
Flight time 1h 3m
Altitude 37000
Route ODRAP DCT KEFIR DCT KENIN DCT KARIL DCT REBLA DCT RUTUV DCT STJ
Aircraft B738/M-SDE2E3FGHIRWXY/LB1

Departure

Time 2026-04-26 18:53
Airport Rzeszów-Jasionka Airport (EPRZ)

Arrival

Time 2026-04-26 19:57
Airport Bucharest Henri Coandă International Airport (LROP)
Time Latitude Longitude Altitude Speed Heading
2026-04-26 18:16 50.11416 22.02711 690 ft 0 kts
2026-04-26 18:42 50.11409 22.02711 684 ft 2 kts
2026-04-26 18:42 50.11392 22.02709 688 ft 2 kts
2026-04-26 18:43 50.11376 22.02705 688 ft 2 kts 10°
2026-04-26 18:43 50.11360 22.02699 682 ft 2 kts 17°
2026-04-26 18:43 50.11344 22.02690 684 ft 2 kts 29°
2026-04-26 18:43 50.11331 22.02674 686 ft 2 kts 51°
2026-04-26 18:44 50.11323 22.02652 683 ft 2 kts 78°
2026-04-26 18:44 50.11322 22.02632 687 ft 1 kts 90°
2026-04-26 18:44 50.11322 22.02629 686 ft 0 kts 91°
2026-04-26 18:48 50.11322 22.02643 683 ft 6 kts 91°
2026-04-26 18:48 50.11305 22.02729 685 ft 9 kts 146°
2026-04-26 18:48 50.11241 22.02742 687 ft 9 kts 176°
2026-04-26 18:48 50.11185 22.02742 689 ft 7 kts 179°
2026-04-26 18:49 50.11134 22.02743 691 ft 7 kts 179°
2026-04-26 18:49 50.11092 22.02739 688 ft 2 kts 182°
2026-04-26 18:51 50.11088 22.02739 689 ft 4 kts 182°
2026-04-26 18:51 50.11041 22.02738 690 ft 7 kts 176°
2026-04-26 18:51 50.10988 22.02726 692 ft 7 kts 241°
2026-04-26 18:52 50.10986 22.02677 695 ft 0 kts 269°
2026-04-26 18:52 50.10986 22.02645 691 ft 17 kts 270°
2026-04-26 18:53 50.10994 22.02028 698 ft 95 kts 271°
2026-04-26 18:53 50.11039 22.00096 849 ft 163 kts 273°
2026-04-26 18:53 50.11060 21.98897 1402 ft 162 kts 273°
2026-04-26 18:53 50.11055 21.97230 2583 ft 145 kts 277°
2026-04-26 18:54 50.11057 21.95628 3247 ft 152 kts 278°
2026-04-26 18:54 50.11080 21.93963 3971 ft 155 kts 279°
2026-04-26 18:54 50.11109 21.92194 4468 ft 177 kts 278°
2026-04-26 18:54 50.11144 21.90161 4875 ft 193 kts 278°
2026-04-26 18:55 50.11176 21.88035 5439 ft 198 kts 277°
2026-04-26 18:55 50.11203 21.85882 6115 ft 200 kts 277°
2026-04-26 18:55 50.11230 21.83639 6500 ft 222 kts 277°
2026-04-26 18:55 50.11263 21.81076 6771 ft 248 kts 276°
2026-04-26 18:56 50.11261 21.78328 7393 ft 260 kts 268°
2026-04-26 18:56 50.10562 21.75637 8146 ft 279 kts 239°
2026-04-26 18:56 50.09102 21.73539 8929 ft 295 kts 216°
2026-04-26 18:56 50.07154 21.72436 9666 ft 310 kts 192°
2026-04-26 18:57 50.04967 21.72481 10376 ft 319 kts 174°
2026-04-26 18:57 50.03482 21.72833 10629 ft 332 kts 172°
2026-04-26 18:57 50.00290 21.73786 10903 ft 363 kts 170°
2026-04-26 18:57 49.97766 21.74582 11387 ft 374 kts 170°
2026-04-26 18:58 49.95197 21.75380 12035 ft 380 kts 171°
2026-04-26 18:58 49.92596 21.76167 12702 ft 387 kts 171°
2026-04-26 18:58 49.89931 21.76953 13381 ft 394 kts 172°
2026-04-26 18:58 49.87201 21.77742 14055 ft 400 kts 173°
2026-04-26 18:59 49.84431 21.78534 14225 ft 404 kts 173°
2026-04-26 18:59 49.81700 21.79312 14229 ft 403 kts 173°
2026-04-26 18:59 49.78905 21.79986 14396 ft 408 kts 179°
2026-04-26 18:59 49.76061 21.80301 15147 ft 408 kts 181°
2026-04-26 19:00 49.73239 21.80535 15922 ft 410 kts 182°
2026-04-26 19:00 49.70366 21.80751 16596 ft 416 kts 182°
2026-04-26 19:00 49.67447 21.80975 17232 ft 422 kts 182°
2026-04-26 19:00 49.64485 21.81215 17895 ft 427 kts 182°
2026-04-26 19:01 49.61490 21.81470 18577 ft 432 kts 182°
2026-04-26 19:01 49.58508 21.81735 19175 ft 436 kts 182°
2026-04-26 19:01 49.55464 21.82013 19852 ft 437 kts 182°
2026-04-26 19:01 49.52448 21.82292 20586 ft 435 kts 182°
2026-04-26 19:02 49.49396 21.82575 21192 ft 440 kts 182°
2026-04-26 19:02 49.46321 21.82855 21728 ft 445 kts 182°
2026-04-26 19:02 49.43202 21.83139 22326 ft 448 kts 183°
2026-04-26 19:02 49.41125 21.83330 22760 ft 449 kts 183°
2026-04-26 19:03 49.36968 21.83710 23593 ft 452 kts 183°
2026-04-26 19:03 49.33806 21.83999 24118 ft 454 kts 183°
2026-04-26 19:03 49.30662 21.84285 24601 ft 456 kts 183°
2026-04-26 19:03 49.27480 21.84575 25108 ft 458 kts 183°
2026-04-26 19:04 49.24286 21.84865 25598 ft 459 kts 183°
2026-04-26 19:04 49.21085 21.85155 26057 ft 462 kts 183°
2026-04-26 19:04 49.17870 21.85446 26519 ft 463 kts 183°
2026-04-26 19:04 49.14661 21.85736 26974 ft 466 kts 184°
2026-04-26 19:05 49.08176 21.86320 27829 ft 470 kts 184°
2026-04-26 19:05 49.04889 21.86616 28267 ft 472 kts 184°
2026-04-26 19:05 49.01588 21.86913 28687 ft 474 kts 184°
2026-04-26 19:06 48.98328 21.87206 29091 ft 476 kts 184°
2026-04-26 19:06 48.95003 21.87504 29472 ft 478 kts 184°
2026-04-26 19:06 48.91656 21.87804 29839 ft 481 kts 184°
2026-04-26 19:06 48.88339 21.88101 30208 ft 483 kts 184°
2026-04-26 19:07 48.84974 21.88401 30527 ft 485 kts 184°
2026-04-26 19:07 48.81600 21.88703 30835 ft 486 kts 184°
2026-04-26 19:07 48.78210 21.89006 31149 ft 487 kts 184°
2026-04-26 19:07 48.74816 21.89309 31463 ft 488 kts 183°
2026-04-26 19:08 48.71420 21.89611 31760 ft 489 kts 183°
2026-04-26 19:08 48.68058 21.89910 32110 ft 488 kts 183°
2026-04-26 19:08 48.64668 21.90213 32576 ft 485 kts 183°
2026-04-26 19:08 48.61311 21.90514 33074 ft 481 kts 183°
2026-04-26 19:09 48.57974 21.90810 33528 ft 478 kts 183°
2026-04-26 19:09 48.54645 21.91104 33936 ft 476 kts 183°
2026-04-26 19:09 48.51377 21.91390 34310 ft 474 kts 183°
2026-04-26 19:09 48.48087 21.91678 34651 ft 472 kts 183°
2026-04-26 19:10 48.44807 21.91966 34936 ft 471 kts 183°
2026-04-26 19:10 48.41515 21.92254 35194 ft 471 kts 183°
2026-04-26 19:10 48.38225 21.92856 35191 ft 481 kts 173°
2026-04-26 19:11 48.31929 21.96356 35208 ft 490 kts 154°
2026-04-26 19:11 48.26108 22.01732 35211 ft 489 kts 152°
2026-04-26 19:12 48.20381 22.07122 35208 ft 486 kts 152°
2026-04-26 19:12 48.14617 22.12431 35211 ft 485 kts 153°
2026-04-26 19:13 48.08867 22.17654 35217 ft 484 kts 153°
2026-04-26 19:13 48.03114 22.22860 35225 ft 485 kts 153°
2026-04-26 19:14 47.97310 22.28102 35530 ft 489 kts 153°
2026-04-26 19:14 47.94400 22.30728 35872 ft 487 kts 153°
2026-04-26 19:14 47.91486 22.33357 36212 ft 485 kts 153°
2026-04-26 19:14 47.89569 22.35083 36398 ft 485 kts 153°
2026-04-26 19:15 47.85736 22.38529 36680 ft 485 kts 153°
2026-04-26 19:15 47.82840 22.41128 36925 ft 485 kts 153°
2026-04-26 19:15 47.79956 22.43739 37190 ft 485 kts 150°
2026-04-26 19:16 47.74593 22.50021 37218 ft 491 kts 147°
2026-04-26 19:16 47.68983 22.55501 37211 ft 483 kts 152°
2026-04-26 19:17 47.63287 22.60731 37212 ft 480 kts 152°
2026-04-26 19:17 47.57612 22.65986 37215 ft 478 kts 152°
2026-04-26 19:18 47.52018 22.71225 37220 ft 477 kts 152°
2026-04-26 19:18 47.46388 22.76510 37218 ft 477 kts 152°
2026-04-26 19:19 47.40800 22.81747 37225 ft 478 kts 152°
2026-04-26 19:19 47.35170 22.87008 37221 ft 479 kts 152°
2026-04-26 19:20 47.29512 22.92281 37228 ft 481 kts 152°
2026-04-26 19:20 47.23872 22.97524 37229 ft 482 kts 152°
2026-04-26 19:21 47.18184 23.02797 37230 ft 483 kts 152°
2026-04-26 19:21 47.12467 23.08084 37229 ft 484 kts 152°
2026-04-26 19:22 47.06774 23.13336 37222 ft 485 kts 152°
2026-04-26 19:22 47.01076 23.18579 37229 ft 484 kts 152°
2026-04-26 19:23 46.95363 23.23822 37223 ft 484 kts 152°
2026-04-26 19:23 46.89656 23.29046 37218 ft 483 kts 152°
2026-04-26 19:24 46.83969 23.34239 37209 ft 482 kts 152°
2026-04-26 19:24 46.75466 23.41978 37196 ft 480 kts 152°
2026-04-26 19:25 46.71690 23.45406 37198 ft 479 kts 152°
2026-04-26 19:25 46.64140 23.52241 37195 ft 479 kts 152°
2026-04-26 19:26 46.58467 23.57362 37196 ft 478 kts 152°
2026-04-26 19:26 46.52844 23.62425 37200 ft 478 kts 152°
2026-04-26 19:27 46.47207 23.67489 37217 ft 477 kts 152°
2026-04-26 19:27 46.41546 23.72562 37218 ft 477 kts 152°
2026-04-26 19:28 46.35881 23.77625 37213 ft 477 kts 152°
2026-04-26 19:28 46.33087 23.80118 37068 ft 479 kts 152°
2026-04-26 19:28 46.30244 23.82651 36790 ft 478 kts 152°
2026-04-26 19:29 46.27406 23.85178 36526 ft 475 kts 152°
2026-04-26 19:29 46.24592 23.87681 36277 ft 475 kts 152°
2026-04-26 19:29 46.21803 23.90157 36021 ft 476 kts 152°
2026-04-26 19:29 46.18963 23.92674 35764 ft 476 kts 153°
2026-04-26 19:30 46.16143 23.95171 35523 ft 477 kts 153°
2026-04-26 19:30 46.13303 23.97683 35276 ft 477 kts 153°
2026-04-26 19:30 46.10471 24.00185 35030 ft 477 kts 153°
2026-04-26 19:30 46.08597 24.01840 34660 ft 476 kts 153°
2026-04-26 19:31 46.04832 24.05162 34096 ft 470 kts 153°
2026-04-26 19:31 46.02085 24.07583 33571 ft 467 kts 153°
2026-04-26 19:31 45.99395 24.10186 33098 ft 467 kts 145°
2026-04-26 19:31 45.96910 24.13186 32603 ft 465 kts 143°
2026-04-26 19:32 45.94470 24.16235 32098 ft 463 kts 142°
2026-04-26 19:32 45.92044 24.19287 31593 ft 461 kts 142°
2026-04-26 19:32 45.89638 24.22302 31107 ft 459 kts 142°
2026-04-26 19:32 45.87218 24.25311 30639 ft 456 kts 142°
2026-04-26 19:33 45.84863 24.28219 30018 ft 449 kts 142°
2026-04-26 19:33 45.82492 24.31130 29161 ft 446 kts 142°
2026-04-26 19:33 45.80124 24.34023 28287 ft 445 kts 142°
2026-04-26 19:33 45.77776 24.36884 27505 ft 442 kts 142°
2026-04-26 19:34 45.75446 24.39720 26777 ft 438 kts 142°
2026-04-26 19:34 45.73148 24.42514 26087 ft 434 kts 142°
2026-04-26 19:34 45.70846 24.45309 25411 ft 430 kts 141°
2026-04-26 19:34 45.68569 24.48072 24733 ft 427 kts 141°
2026-04-26 19:35 45.66334 24.50782 24085 ft 424 kts 141°
2026-04-26 19:35 45.64079 24.53512 23532 ft 418 kts 141°
2026-04-26 19:35 45.61899 24.56151 22990 ft 410 kts 141°
2026-04-26 19:35 45.59748 24.58751 22568 ft 400 kts 141°
2026-04-26 19:36 45.57642 24.61295 22114 ft 391 kts 141°
2026-04-26 19:36 45.56943 24.62139 21987 ft 388 kts 141°
2026-04-26 19:36 45.54235 24.65403 21463 ft 380 kts 141°
2026-04-26 19:36 45.52231 24.67816 21056 ft 375 kts 141°
2026-04-26 19:37 45.50222 24.70232 20709 ft 382 kts 141°
2026-04-26 19:37 45.48134 24.72738 20293 ft 398 kts 140°
2026-04-26 19:37 45.46000 24.75299 19844 ft 401 kts 140°
2026-04-26 19:37 45.43886 24.77835 19419 ft 399 kts 140°
2026-04-26 19:38 45.41762 24.80381 18995 ft 398 kts 141°
2026-04-26 19:38 45.39664 24.82892 18571 ft 397 kts 141°
2026-04-26 19:38 45.37557 24.85413 18104 ft 396 kts 140°
2026-04-26 19:38 45.35443 24.87939 17651 ft 393 kts 141°
2026-04-26 19:39 45.33346 24.90442 17219 ft 390 kts 141°
2026-04-26 19:39 45.31265 24.92924 16801 ft 387 kts 141°
2026-04-26 19:39 45.29235 24.95342 16405 ft 384 kts 141°
2026-04-26 19:39 45.27186 24.97779 15996 ft 381 kts 141°
2026-04-26 19:40 45.25151 25.00198 15586 ft 379 kts 141°
2026-04-26 19:40 45.23124 25.02606 15187 ft 376 kts 141°
2026-04-26 19:40 45.21119 25.04985 14782 ft 372 kts 141°
2026-04-26 19:40 45.19180 25.07285 14384 ft 362 kts 141°
2026-04-26 19:41 45.17275 25.09542 13997 ft 352 kts 141°
2026-04-26 19:41 45.15414 25.11745 13584 ft 343 kts 141°
2026-04-26 19:41 45.13607 25.13881 13198 ft 334 kts 141°
2026-04-26 19:41 45.12434 25.15268 12960 ft 328 kts 141°
2026-04-26 19:42 45.10101 25.18020 12506 ft 331 kts 141°
2026-04-26 19:42 45.08315 25.20124 12140 ft 336 kts 141°
2026-04-26 19:42 45.06507 25.22254 11776 ft 340 kts 141°
2026-04-26 19:42 45.04686 25.24396 11416 ft 339 kts 141°
2026-04-26 19:43 45.02886 25.26514 11030 ft 332 kts 141°
2026-04-26 19:43 45.01135 25.28574 10670 ft 322 kts 141°
2026-04-26 19:43 44.99439 25.30568 10444 ft 309 kts 141°
2026-04-26 19:43 44.97845 25.32440 10307 ft 294 kts 142°
2026-04-26 19:44 44.96289 25.34265 10185 ft 286 kts 142°
2026-04-26 19:44 44.94750 25.36067 10058 ft 287 kts 142°
2026-04-26 19:44 44.93209 25.37870 9758 ft 293 kts 142°
2026-04-26 19:44 44.91626 25.39720 9471 ft 294 kts 142°
2026-04-26 19:45 44.90054 25.41558 9177 ft 292 kts 142°
2026-04-26 19:45 44.88505 25.43367 8891 ft 290 kts 142°
2026-04-26 19:45 44.86953 25.45179 8600 ft 289 kts 142°
2026-04-26 19:45 44.85387 25.47006 8131 ft 293 kts 142°
2026-04-26 19:46 44.83815 25.48838 7795 ft 293 kts 142°
2026-04-26 19:46 44.82248 25.50662 7420 ft 295 kts 142°
2026-04-26 19:46 44.80668 25.52502 7113 ft 293 kts 142°
2026-04-26 19:46 44.79093 25.54335 6810 ft 291 kts 142°
2026-04-26 19:47 44.77544 25.56136 6521 ft 284 kts 142°
2026-04-26 19:47 44.76543 25.57300 6323 ft 279 kts 142°
2026-04-26 19:47 44.74579 25.59580 5960 ft 269 kts 141°
2026-04-26 19:47 44.73172 25.61211 5695 ft 260 kts 141°
2026-04-26 19:48 44.71793 25.62810 5446 ft 252 kts 140°
2026-04-26 19:48 44.70436 25.64381 5203 ft 251 kts 140°
2026-04-26 19:48 44.69998 25.64889 5131 ft 253 kts 140°
2026-04-26 19:49 44.69330 25.65661 5019 ft 257 kts 140°
2026-04-26 19:49 44.67913 25.67303 4771 ft 266 kts 139°
2026-04-26 19:49 44.66500 25.68936 4482 ft 262 kts 139°
2026-04-26 19:49 44.65113 25.70538 4210 ft 254 kts 138°
2026-04-26 19:50 44.63764 25.72095 3943 ft 246 kts 137°
2026-04-26 19:50 44.62492 25.73562 3848 ft 229 kts 137°
2026-04-26 19:50 44.61304 25.74930 3717 ft 212 kts 136°
2026-04-26 19:50 44.60220 25.76180 3631 ft 199 kts 136°
2026-04-26 19:51 44.59160 25.77403 3573 ft 194 kts 136°
2026-04-26 19:51 44.58135 25.78583 3475 ft 186 kts 135°
2026-04-26 19:51 44.57139 25.79729 3392 ft 183 kts 134°
2026-04-26 19:51 44.56162 25.80856 3229 ft 182 kts 134°
2026-04-26 19:52 44.55224 25.82021 3024 ft 174 kts 119°
2026-04-26 19:52 44.54987 25.83511 2976 ft 153 kts 78°
2026-04-26 19:52 44.55010 25.85048 2872 ft 164 kts 87°
2026-04-26 19:52 44.54989 25.86661 2751 ft 165 kts 83°
2026-04-26 19:53 44.55045 25.88261 2497 ft 162 kts 81°
2026-04-26 19:53 44.55140 25.89798 2503 ft 157 kts 80°
2026-04-26 19:53 44.55251 25.91331 2442 ft 157 kts 80°
2026-04-26 19:53 44.55358 25.92822 2263 ft 151 kts 79°
2026-04-26 19:54 44.55464 25.94259 2082 ft 143 kts 79°
2026-04-26 19:54 44.55564 25.95606 1909 ft 135 kts 81°
2026-04-26 19:54 44.55660 25.96894 1776 ft 132 kts 82°
2026-04-26 19:54 44.55756 25.98180 1590 ft 133 kts 81°
2026-04-26 19:55 44.55855 25.99501 1428 ft 138 kts 81°
2026-04-26 19:55 44.55919 26.00796 1423 ft 129 kts 83°
2026-04-26 19:55 44.56046 26.02075 1240 ft 136 kts 80°
2026-04-26 19:55 44.56143 26.03434 1032 ft 143 kts 82°
2026-04-26 19:56 44.56255 26.04781 746 ft 136 kts 85°
2026-04-26 19:56 44.56347 26.06077 534 ft 130 kts 85°
2026-04-26 19:56 44.56443 26.07332 414 ft 130 kts 85°
2026-04-26 19:56 44.56537 26.08559 327 ft 119 kts 84°
2026-04-26 19:57 44.56612 26.09592 319 ft 90 kts 85°
2026-04-26 19:57 44.56662 26.10276 319 ft 42 kts 83°
2026-04-26 19:57 44.56686 26.10584 320 ft 25 kts 84°
2026-04-26 19:57 44.56709 26.10738 320 ft 14 kts 57°
2026-04-26 19:58 44.56795 26.10762 320 ft 11 kts 353°
2026-04-26 19:58 44.56871 26.10750 320 ft 11 kts 356°
2026-04-26 19:58 44.56945 26.10739 319 ft 11 kts 347°
2026-04-26 19:58 44.57008 26.10692 320 ft 10 kts 314°
2026-04-26 19:59 44.57013 26.10684 320 ft 1 kts 306°
2026-04-26 19:59 44.57026 26.10654 318 ft 7 kts 301°
2026-04-26 19:59 44.57054 26.10579 318 ft 10 kts 296°
2026-04-26 19:59 44.57066 26.10485 320 ft 9 kts 267°
2026-04-26 20:00 44.57061 26.10396 320 ft 9 kts 265°
2026-04-26 20:00 44.57056 26.10307 320 ft 9 kts 264°
2026-04-26 20:00 44.57048 26.10222 320 ft 9 kts 263°
2026-04-26 20:00 44.57041 26.10139 320 ft 8 kts 264°
2026-04-26 20:01 44.57035 26.10059 319 ft 8 kts 264°
2026-04-26 20:01 44.57028 26.09971 320 ft 11 kts 264°
2026-04-26 20:01 44.57018 26.09828 319 ft 17 kts 263°
2026-04-26 20:01 44.57003 26.09652 320 ft 18 kts 263°
2026-04-26 20:02 44.56990 26.09481 320 ft 18 kts 263°
2026-04-26 20:02 44.56978 26.09314 320 ft 17 kts 264°
2026-04-26 20:02 44.56965 26.09153 320 ft 16 kts 264°
2026-04-26 20:02 44.56957 26.09049 320 ft 16 kts 263°
2026-04-26 20:03 44.56942 26.08849 320 ft 15 kts 263°
2026-04-26 20:03 44.56931 26.08721 319 ft 13 kts 263°
2026-04-26 20:03 44.56923 26.08598 320 ft 12 kts 260°
2026-04-26 20:03 44.56905 26.08530 320 ft 6 kts 250°
2026-04-26 20:04 44.56897 26.08463 320 ft 9 kts 265°
2026-04-26 20:04 44.56920 26.08403 320 ft 10 kts 323°
2026-04-26 20:04 44.56954 26.08337 320 ft 7 kts 271°
2026-04-26 20:04 44.56949 26.08257 318 ft 9 kts 264°
2026-04-26 20:05 44.56966 26.08204 320 ft 4 kts 339°
2026-04-26 20:05 44.56995 26.08202 318 ft 4 kts 355°
2026-04-26 20:05 44.57013 26.08200 320 ft 2 kts 354°
2026-04-26 20:05 44.57022 26.08198 320 ft 1 kts 354°
2026-04-26 20:06 44.57025 26.08198 320 ft 0 kts 354°